Regional Weather Roundup
Issued by NWS

Home | Current Version | Previous Version | Graphics & Text | Print | Product List | Glossary Off
Versions: 1 2 3 4 5 6 7 8 9 10 11 12 13 14 15 16 17 18 19 20 21 22 23 24 25 26 27 28 29 30 31 32 33 34 35 36 37 38 39 40 41 42 43 44 45 46 47 48 49 50

000
ASUS43 KMKX 260520
RWRWI

WISCONSIN REGIONAL WEATHER ROUNDUP
NATIONAL WEATHER SERVICE MILWAUKEE/SULLIVAN WI
1200 AM CDT THU APR 26 2018

NOTE: "FAIR" INDICATES FEW OR NO CLOUDS BELOW 12,000 FEET WITH NO
SIGNIFICANT WEATHER AND/OR OBSTRUCTIONS TO VISIBILITY.

WIZ001-002-006>008-014>016-023>028-260600-
NORTHWEST WISCONSIN

CITY           SKY/WX    TMP DP  RH WIND       PRES   REMARKS
SUPERIOR ARPT  FAIR      33  29  86 S3        29.90F
ASHLAND        FAIR      35  25  66 SW8       29.92F WCI  29
HAYWARD        FAIR      33  24  69 CALM      29.93F
SIREN          FAIR      36  25  64 CALM      29.93F
CUMBERLAND     FAIR      37  25  60 CALM      29.94F
RICE LAKE      FAIR      36  30  78 CALM      29.95F
CHETEK         FAIR      35  28  75 CALM      29.94F
LADYSMITH      FAIR      36  30  78 CALM      29.95F
EAU CLAIRE     FAIR      40  27  59 CALM      29.94F
MENOMONIE      FAIR      42  29  59 CALM      29.95F
NEW RICHMOND   FAIR      37  28  70 CALM      29.95F
OSCEOLA        FAIR      38  30  72 CALM      29.97F
$$

WIZ003>005-009-010-017-018-260600-
NORTH CENTRAL WISCONSIN

CITY           SKY/WX    TMP DP  RH WIND       PRES   REMARKS
MANITOWISH WTR FAIR      28  23  79 CALM      29.93S
ARBOR VITAE    FAIR      34  24  66 CALM      29.93F
WOODRUFF       FAIR      34  24  66 CALM      29.93F
RHINELANDER    FAIR      31  23  72 CALM      29.94F
EAGLE RIVER    FAIR      30  23  74 CALM      29.93F
LAND O LAKES   FAIR      28  23  82 CALM      29.95S
PHILLIPS       FAIR      31  26  80 CALM      29.93S
TOMAHAWK       FAIR      29  24  82 CALM      29.95F
MEDFORD        FAIR      34  29  83 CALM      29.94F
MERRILL        FAIR      31  25  78 CALM      29.95F
$$

WIZ029-030-035-036-043>047-260600-
CENTRAL WISCONSIN

CITY           SKY/WX    TMP DP  RH WIND       PRES   REMARKS
WAUSAU         FAIR      37  27  67 CALM      29.93F
MOSINEE        FAIR      39  27  60 W6        29.96F WCI  35
MARSHFIELD     FAIR      40  30  67 CALM      29.94F
STEVENS POINT  FAIR      32  27  82 CALM      29.97S
WAUPACA        FAIR      40  31  71 CALM      29.96F
WAUTOMA        FAIR      32  28  85 CALM      29.97F
WISC RAPIDS    FAIR      35  26  69 CALM      29.97F
CAMP DOUGLAS   FAIR      32  27  80 CALM      29.96F
$$

WIZ011>013-019>022-031-037>040-048>050-260600-
NORTHEAST WISCONSIN

CITY           SKY/WX    TMP DP  RH WIND       PRES   REMARKS
ANTIGO         FAIR      34  31  90 CALM      29.95F
SHAWANO        FAIR      36  32  85 CALM      29.95F
OCONTO         FAIR      33  28  83 CALM      29.97F
STURGEON BAY   FAIR      36  28  73 S6        29.97F WCI  31
GREEN BAY      FAIR      39  31  72 S5        29.97F
MANITOWOC      FAIR      36  28  73 S3        29.98F
APPLETON       FAIR      39  32  75 CALM      29.95S
CLINTONVILLE   FAIR      40  30  66 CALM      29.95F
OSHKOSH        FAIR      39  33  79 S9        29.96F WCI  33
$$

WIZ032>034-041-042-053>061-260600-
SOUTHWEST WISCONSIN

CITY           SKY/WX    TMP DP  RH WIND       PRES   REMARKS
LA CROSSE      FAIR      44  31  60 CALM      29.97F
SPARTA         FAIR      32  28  86 CALM      29.98S
VIROQUA        FAIR      45  29  52 CALM      29.96F
BOSCOBEL       FAIR      39  31  72 CALM      29.98S
PRAIRIE DU CHI FAIR      41  29  63 CALM      29.99R
PLATTEVILLE    FAIR      47  29  49 E5        29.97F
$$

WIZ056-057-062-063-064-067-068-260600-
SOUTH CENTRAL WISCONSIN

CITY           SKY/WX    TMP DP  RH WIND       PRES   REMARKS
REEDSBURG      FAIR      39  33  79 CALM      29.97S
BARABOO/DELLS  FAIR      38  26  61 CALM      29.96F
LONE ROCK      FAIR      39  32  76 CALM      29.97F
MINERAL POINT  FAIR      50  27  40 CALM      29.96F
MADISON        FAIR      44  33  65 S10       29.97F
MIDDLETON      FAIR      44  34  66 SE6       29.98F
WATERTOWN      FAIR      36  32  85 CALM      29.98F
MONROE         FAIR      41  32  70 SE6       29.98F
JANESVILLE     FAIR      37  32  81 SE3       30.00S
$$

WIZ051-052-058>065-066-070>072-260600-
SOUTHEAST WISCONSIN

CITY           SKY/WX    TMP DP  RH WIND       PRES   REMARKS
MILWAUKEE      FAIR      38  28  67 SW3       30.00F
WAUKESHA       FAIR      32  28  86 CALM      30.00S
MILWAUKEE/TIMM FAIR      34  27  75 CALM      30.01S
RACINE         FAIR      32  27  81 SW3       30.01F
BURLINGTON     FAIR      32  29  87 CALM      29.99F
KENOSHA        FAIR      35  27  72 NW3       30.00F
FOND DU LAC    FAIR      37  31  78 S8        29.97F WCI  31
SHEBOYGAN      FAIR      36  30  79 SW3       29.98F
WEST BEND      FAIR      32  32 100 CALM      29.99F
JUNEAU         FAIR      38  30  73 SE5       29.99F WCI  34
$$

LSZ147-162-260600-
LAKE SUPERIOR

STATION/POSITION TIME  TEMP    WIND        PRES    WAVE
                       AIR SEA DIR/SP/G            HT/PER
                 (UTC) (F)     (DEG/KT/KT) (MB)    (FT/S)
DEVILS ISLAND    0500   42     260/  3/  5 1013.2S
SAXON HARBOR     0430   36     200/  3/  6 1012.9S
$$

LMZ867-665-643>646-260600-
LAKE MICHIGAN

STATION/POSITION TIME  TEMP    WIND        PRES    WAVE
                       AIR SEA DIR/SP/G            HT/PER
                 (UTC) (F)     (DEG/KT/KT) (MB)    (FT/S)
NORTHPORT PIER   0440   35                 1014.9F
KEWAUNEE LAKESHO 0454   39     250/  2/  4 1014.3F
SHEBOYGAN LAKESH 0500   39     220/  3/  3 1015.7F
PORT WASHINGTON  0440   37     260/  3/  4 1016.9F
MILWAUKEE LAKESH 0500   40     330/  2/  2   N/A
KENOSHA   LAKESH 0500   39                 1015.9
$$

TC  - TEMPERATURE IN CELSIUS
VSB - VISIBILITY IN STATUTE MILES
WCI - WIND CHILL INDEX
HX  - HEAT INDEX





USA.gov is the U.S. government's official web portal to all federal, state and local government web resources and services.